EST,Max TemperatureF,Mean TemperatureF,Min TemperatureF,Max Dew PointF,MeanDew PointF,Min DewpointF,Max Humidity, Mean Humidity, Min Humidity, Max Sea Level PressureIn, Mean Sea Level PressureIn, Min Sea Level PressureIn, Max VisibilityMiles, Mean VisibilityMiles, Min VisibilityMiles, Max Wind SpeedMPH, Mean Wind SpeedMPH, Max Gust SpeedMPH,PrecipitationIn, CloudCover, Events, WindDirDegrees
2012-12-1,50,42,35,43,38,34,93,85,71,30.25,30.16,30.03,10,6,4,13,6,18,0.00,6,,102
2012-12-2,57,52,46,54,48,43,94,90,82,30.10,29.99,29.92,10,6,2,15,8,20,0.35,8,Rain,208
2012-12-3,53,50,46,52,48,45,94,91,87,30.13,30.05,29.94,10,2,0,15,5,,0.00,8,Fog,148
2012-12-4,59,50,41,54,46,34,88,81,70,30.10,29.98,29.92,10,10,5,16,11,22,0.08,4,Rain,240
2012-12-5,41,36,30,34,23,18,76,63,45,30.38,30.31,30.11,10,10,10,16,8,23,0.00,0,,3
2012-12-6,39,34,28,36,28,21,87,76,69,30.35,30.15,29.96,10,10,10,15,7,20,0.00,2,,141
2012-12-7,42,40,39,39,37,34,87,86,81,29.97,29.92,29.87,10,6,1,8,4,,0.04,7,Rain,212
2012-12-8,42,38,35,39,36,30,93,86,75,30.16,29.93,29.80,10,6,2,12,6,13,0.15,8,Rain,12
2012-12-9,42,38,35,41,34,27,93,86,70,30.17,29.96,29.63,10,7,0,13,7,17,0.17,8,Fog-Rain,73
2012-12-10,42,38,33,41,33,25,93,80,66,29.85,29.68,29.60,10,8,0,15,5,20,0.03,8,Rain,294
2012-12-11,35,32,28,27,22,18,86,69,52,30.16,30.01,29.85,10,10,10,13,5,22,0.00,5,Snow,244
2012-12-12,42,34,26,30,26,23,86,75,49,30.37,30.30,30.17,10,10,10,13,8,17,0.00,0,,214
2012-12-13,42,36,30,34,29,25,87,74,57,30.37,30.30,30.17,10,10,10,14,8,18,0.00,0,,198
2012-12-14,42,36,30,32,28,25,87,73,57,30.24,30.20,30.16,10,10,10,9,4,,0.00,0,,204
2012-12-15,46,40,33,39,33,28,93,76,50,30.16,29.97,29.70,10,8,2,15,5,25,0.00,4,Rain,119
2012-12-16,55,48,42,48,44,39,93,84,72,29.69,29.64,29.58,10,8,2,15,8,22,0.28,8,Rain,216
2012-12-17,44,42,39,37,36,34,81,77,70,29.74,29.67,29.60,10,10,10,10,5,18,0.00,8,,274
2012-12-18,41,38,35,36,32,28,93,79,61,29.76,29.70,29.61,10,9,5,14,7,17,0.03,6,Rain,264
2012-12-19,39,38,37,36,35,34,93,86,81,30.12,29.97,29.73,7,6,2,8,3,,0.00,8,,322
2012-12-20,46,40,35,43,37,30,93,83,70,30.08,29.55,29.17,10,9,3,24,12,37,0.55,7,Rain-Snow,124
2012-12-21,35,32,30,30,27,21,93,79,64,29.83,29.44,29.18,10,8,1,30,18,40,0.00,8,Snow,292
2012-12-22,35,32,26,27,22,19,86,67,56,30.06,30.00,29.84,10,10,10,23,14,33,0.00,5,,282
2012-12-23,35,29,23,25,21,19,86,72,56,30.02,29.95,29.89,10,10,10,9,6,,0.00,1,,286
2012-12-24,33,28,24,28,24,19,93,80,69,30.00,29.91,29.79,10,9,2,15,6,17,0.01,6,Snow,44
2012-12-25,32,28,23,27,23,19,93,79,64,30.28,30.18,29.97,10,10,10,13,8,18,0.00,6,,359
2012-12-26,30,28,26,27,24,21,93,83,69,30.25,29.95,29.79,10,6,0,28,17,37,0.05,8,Snow,29
2012-12-27,30,24,19,28,23,16,93,80,64,30.14,30.01,29.83,10,10,2,15,10,18,0.00,5,Snow,325
2012-12-28,30,22,15,25,18,12,93,82,60,30.17,30.08,29.93,10,9,4,9,1,,0.00,4,,64
2012-12-29,30,27,24,27,25,18,93,86,74,30.04,29.86,29.78,10,5,1,13,9,,0.01,8,Snow,346
2012-12-30,28,24,21,25,19,16,93,81,74,30.30,30.22,30.04,10,8,3,15,8,22,0.00,6,Snow,240
2012-12-31,35,28,21,28,23,16,86,74,64,30.20,30.01,29.92,10,10,7,18,10,24,0.00,3,,230